Location: Alfortville
(48.8058°N, 2.4204°E)
Time: 22:30:58
(UTC+00:00)

SR - Pass Details

Date: 21 April 2026
Orbit: 568 x 852 km, 66.7° (Epoch: 19 May)

Event Time Altitude Azimuth Distance (km) Brightness Sun altitude
Rises 19:58:43 0° 326° (NW) 3,252 ? -10.8°
Reaches altitude 10° 20:01:18 10° 336° (NNW) 2,364 ? -11.2°
Maximum altitude 20:06:16 34° 41° (NE) 1,332 ? -11.9°
Enters shadow 20:10:32 14° 101° (E) 2,177 ? -12.4°
